Location: Fort Wayne
(41.1310°N, 85.1290°W)
Time: 11:31:42
(UTC-04:00)

Amateur Radio Satellites - All Passes

Search period start: 20 August 2017 11:01
Search period end: 21 August 2017 11:01
Location: Fort Wayne, 41.1310°N, 85.1290°W

Satellite Date Start Highest point End Downlink Frequencies (MHz)
Time Altitude Azimuth
Tancredo 1 20 Aug 11:04:05 11:06:56 51° 327° (NNW) 11:09:47 437.200
AIST 2D 20 Aug 11:05:31 11:06:54 12° 66° (ENE) 11:08:17 435.315
Oscar 11 20 Aug 11:07:46 11:11:43 35° 289° (WNW) 11:15:41 .
M-CUBED/EXP-1 PRIME 20 Aug 11:13:21 11:17:08 27° 62° (ENE) 11:21:02 437.505
O/OREOS (USA 219) 20 Aug 11:25:06 11:29:20 42° 297° (WNW) 11:33:36 437.305
EO-88 20 Aug 11:28:48 11:32:26 59° 100° (E) 11:36:03 145.990 - 145.960
UNISAT 6 20 Aug 11:30:00 11:33:54 32° 263° (W) 11:37:46 437.425
FO-29 20 Aug 11:33:40 11:39:56 28° 266° (W) 11:45:50 435.910
ZACube-1 20 Aug 11:37:55 11:39:41 12° 297° (WNW) 11:41:27 437.345
RS-15 20 Aug 11:41:54 11:53:24 51° 110° (ESE) 12:05:01 29.354- 29.394
PRISM 20 Aug 11:48:58 11:52:30 26° 264° (W) 11:56:02 437.425
ISS 20 Aug 11:59:44 12:02:59 61° 326° (NNW) 12:06:16 437.550
ESTCUBE 1 20 Aug 12:02:46 12:05:05 14° 91° (E) 12:07:24 437.505/2401.250
Max Valier Satellite 20 Aug 12:07:00 12:10:20 32° 288° (WNW) 12:13:40 145.860
TIGRISAT 20 Aug 12:07:04 12:09:29 15° 268° (W) 12:11:53 435.000
nSIGHT-1 20 Aug 12:09:09 12:12:19 48° 329° (NNW) 12:15:30 .
NANOSAT C BR1 20 Aug 12:10:31 12:14:12 31° 70° (ENE) 12:17:55 145.865
DELFI C3 20 Aug 12:11:29 12:14:47 25° 291° (WNW) 12:18:03 145.870
POLYITAN 1 20 Aug 12:14:18 12:18:12 38° 71° (ENE) 12:22:05 437.675
QB50P2 20 Aug 12:29:04 12:33:14 63° 75° (ENE) 12:37:24 145.880/145.840
EO-79 20 Aug 12:30:04 12:34:11 58° 74° (ENE) 12:38:19 145.935-145.965
AIST 2D 20 Aug 12:36:26 12:39:43 39° 262° (W) 12:43:02 435.315
Tancredo 1 20 Aug 12:41:02 12:42:39 14° 346° (NNW) 12:44:16 437.200
M-CUBED/EXP-1 PRIME 20 Aug 12:47:21 12:51:22 33° 259° (W) 12:55:34 437.505
DUCHIFAT 1 20 Aug 13:00:53 13:05:04 79° 259° (W) 13:09:14 145.980
LO-87 20 Aug 13:01:02 13:04:35 75° 284° (WNW) 13:08:05 145.935 - 145.965
BUGSAT 1 20 Aug 13:04:24 13:07:58 29° 70° (ENE) 13:11:30 437.445
Gurwin Techsat 1B 20 Aug 13:19:20 13:22:34 17° 61° (ENE) 13:25:50 435.225
ISS 20 Aug 13:37:44 13:39:59 17° 345° (NNW) 13:42:13 437.550
ESTCUBE 1 20 Aug 13:37:45 13:42:14 57° 287° (WNW) 13:46:40 437.505/2401.250
BEESAT 3 20 Aug 13:46:18 13:48:23 14° 41° (NE) 13:50:26 437.485
NANOSAT C BR1 20 Aug 13:46:44 13:49:56 21° 266° (W) 13:53:10 145.865
nSIGHT-1 20 Aug 13:47:15 13:49:18 15° 348° (NNW) 13:51:22 .
VELOX 1 20 Aug 13:47:30 13:51:35 35° 98° (E) 13:55:36 145.980
Oscar 19 20 Aug 13:48:38 13:53:28 44° 70° (ENE) 13:58:21 437.125/150
POLYITAN 1 20 Aug 13:51:17 13:54:06 17° 267° (W) 13:56:56 437.675
DX 1 20 Aug 13:53:35 13:54:49 11° 90° (E) 13:56:02 434.975-435.025
RS-15 20 Aug 13:53:55 14:05:53 55° 313° (NW) 14:17:57 29.354- 29.394
50 SAT 20 Aug 13:56:58 13:58:45 14° 93° (E) 14:00:31 437.505
SPROUT 20 Aug 13:59:59 14:04:13 64° 102° (ESE) 14:08:24 437.525
QB50P2 20 Aug 14:08:29 14:09:24 11° 270° (W) 14:10:21 145.880/145.840
EO-79 20 Aug 14:08:52 14:10:18 11° 270° (W) 14:11:44 145.935-145.965
Tancredo 1 20 Aug 14:17:46 14:18:49 11° 7° (N) 14:19:52 437.200
BUGSAT 1 20 Aug 14:40:10 14:43:19 21° 265° (W) 14:46:28 437.445
AO-85 20 Aug 14:49:56 14:53:53 35° 51° (NE) 14:58:06 145.980
Gurwin Techsat 1B 20 Aug 14:56:39 15:01:56 68° 258° (WSW) 15:07:15 435.225
AO-7 20 Aug 14:57:07 15:04:19 34° 58° (ENE) 15:11:30 .
UKube-1 20 Aug 15:06:43 15:10:54 47° 100° (E) 15:15:02 .
ITAMSAT 1 20 Aug 15:08:29 15:12:02 19° 62° (ENE) 15:15:35 435.822/435.867
ISS 20 Aug 15:15:41 15:17:27 14° 6° (N) 15:19:15 437.550
BEESAT 3 20 Aug 15:22:27 15:26:27 74° 240° (WSW) 15:30:21 437.485
VELOX 1 20 Aug 15:24:27 15:27:47 21° 294° (WNW) 15:31:06 145.980
nSIGHT-1 20 Aug 15:24:50 15:26:42 14° 9° (N) 15:28:33 .
DX 1 20 Aug 15:27:05 15:31:25 65° 286° (WNW) 15:35:42 434.975-435.025
50 SAT 20 Aug 15:28:30 15:31:30 30° 289° (WNW) 15:34:27 437.505
Oscar 19 20 Aug 15:28:59 15:32:58 22° 266° (W) 15:36:58 437.125/150
BEESAT 2 20 Aug 15:34:52 15:38:49 48° 54° (NE) 15:42:43 435.950
SPROUT 20 Aug 15:37:58 15:39:33 12° 298° (WNW) 15:41:09 437.525
Tancredo 1 20 Aug 15:52:12 15:54:45 27° 26° (NNE) 15:57:18 437.200
ITUPSAT 1 20 Aug 15:57:05 16:00:23 18° 93° (E) 16:03:42 437.325
YUBILEINY 20 Aug 16:04:02 16:11:32 33° 84° (E) 16:19:00 435.215
RS-15 20 Aug 16:12:29 16:22:05 25° 344° (NNW) 16:31:36 29.354- 29.394
AO-85 20 Aug 16:30:32 16:34:10 26° 246° (WSW) 16:38:00 145.980
UKube-1 20 Aug 16:43:53 16:46:30 16° 296° (WNW) 16:49:09 .
ITAMSAT 1 20 Aug 16:45:56 16:51:02 57° 258° (WSW) 16:56:10 435.822/435.867
MOZHAYETS 4 20 Aug 16:47:54 16:52:25 55° 100° (E) 16:56:57
AO-7 20 Aug 16:48:25 16:56:38 59° 257° (WSW) 17:04:53 .
ISS 20 Aug 16:51:46 16:54:43 30° 26° (NNE) 16:57:40 437.550
BEESAT 20 Aug 16:59:38 17:04:26 82° 103° (ESE) 17:09:12 436.000
nSIGHT-1 20 Aug 17:00:44 17:03:47 36° 28° (NNE) 17:06:49 .
CUBESAT XI-V 20 Aug 17:07:24 17:10:38 18° 92° (E) 17:13:52 437.345
BEESAT 2 20 Aug 17:13:48 17:16:09 15° 250° (WSW) 17:18:29 435.950
Tancredo 1 20 Aug 17:27:20 17:29:57 31° 223° (SW) 17:32:33 437.200
ITUPSAT 1 20 Aug 17:33:52 17:38:26 46° 289° (WNW) 17:42:59 437.325
LilacSat-2 20 Aug 17:42:17 17:42:27 10° 63° (ENE) 17:42:39 437.200
XW-2D 20 Aug 17:46:08 17:47:10 11° 64° (ENE) 17:48:12 145.860 - 145.880
XW-2B 20 Aug 17:56:08 17:58:07 14° 66° (ENE) 18:00:07 145.730 - 145.750
YUBILEINY 20 Aug 17:59:20 18:07:53 54° 283° (WNW) 18:16:27 435.215
DOVE 4 20 Aug 18:08:12 18:13:29 73° 75° (ENE) 18:18:39 437.250
XW-2C 20 Aug 18:14:03 18:17:01 23° 69° (ENE) 18:20:01 145.795 - 145.815
XW-2F 20 Aug 18:26:11 18:29:27 29° 71° (ENE) 18:32:45 145.980 - 146.000
MOZHAYETS 4 20 Aug 18:26:20 18:29:08 16° 296° (WNW) 18:31:54
ISS 20 Aug 18:28:12 18:31:13 35° 223° (SW) 18:34:13 437.550
RS-15 20 Aug 18:30:29 18:40:20 27° 20° (NNE) 18:49:50 29.354- 29.394
nSIGHT-1 20 Aug 18:37:17 18:40:05 27° 225° (SW) 18:42:51 .
KKS-1 20 Aug 18:38:54 18:43:20 71° 102° (ESE) 18:47:43 437.445
BEESAT 20 Aug 18:39:50 18:41:30 12° 300° (WNW) 18:43:10 436.000
CUBESAT XI-V 20 Aug 18:43:43 18:48:13 46° 288° (WNW) 18:52:42 437.345
HO-68 20 Aug 18:48:40 18:54:32 28° 60° (ENE) 19:00:24 435.675
KAITUO 1B 20 Aug 18:51:40 18:55:13 48° 74° (ENE) 18:58:50 145.475/437.950
CUTE-I 20 Aug 18:51:45 18:57:01 61° 72° (ENE) 19:02:18 437.470
LilacSat-2 20 Aug 19:12:29 19:16:12 60° 260° (W) 19:19:58 437.200
XW-2D 20 Aug 19:17:12 19:20:51 54° 260° (W) 19:24:34 145.860 - 145.880
STARS 20 Aug 19:18:31 19:22:53 79° 104° (ESE) 19:27:13 437.465
NUDT-PHONESAT 20 Aug 19:24:54 19:28:32 62° 260° (W) 19:32:11 437.300
SEEDS 20 Aug 19:27:35 19:30:37 20° 67° (ENE) 19:33:40 437.485
XW-2B 20 Aug 19:28:23 19:31:56 40° 262° (W) 19:35:31 145.730 - 145.750
XW-2C 20 Aug 19:48:05 19:51:07 23° 265° (W) 19:54:11 145.795 - 145.815
DOVE 4 20 Aug 19:48:53 19:51:35 14° 271° (W) 19:54:15 437.250
O/OREOS (USA 219) 20 Aug 19:55:44 19:59:56 35° 62° (ENE) 20:04:06 437.305
XW-2F 20 Aug 20:01:03 20:03:37 18° 267° (W) 20:06:12 145.980 - 146.000
CUTE 1.7 + AOD 2 20 Aug 20:13:20 20:17:33 81° 258° (WSW) 20:21:49 437.475
AAUSAT CUBESAT 2 20 Aug 20:13:26 20:16:57 28° 70° (ENE) 20:20:32 437.432
UWE-3 20 Aug 20:15:15 20:18:56 30° 70° (ENE) 20:22:36 435.000/436.395/437.385
KKS-1 20 Aug 20:17:38 20:19:16 12° 299° (WNW) 20:20:54 437.445
CUBEBUG 2 20 Aug 20:21:18 20:25:32 64° 76° (ENE) 20:29:43 437.445
Oscar 11 20 Aug 20:27:35 20:30:14 16° 65° (ENE) 20:32:54 .
KAITUO 1B 20 Aug 20:28:40 20:29:30 11° 270° (W) 20:30:20 145.475/437.950
XW-2A 20 Aug 20:31:37 20:34:56 89° 257° (WSW) 20:38:17 145.665 - 145.685
CUTE-I 20 Aug 20:34:04 20:37:27 17° 269° (W) 20:40:50 437.470
HO-68 20 Aug 20:34:47 20:41:48 59° 258° (WSW) 20:48:52 435.675
RS-15 20 Aug 20:43:56 20:55:59 63° 50° (NE) 21:07:20 29.354- 29.394
STRAND 1 20 Aug 20:46:01 20:50:53 44° 99° (E) 20:55:43 437.568
ZACube-1 20 Aug 20:55:17 20:59:16 46° 73° (ENE) 21:03:13 437.345
STARS 20 Aug 20:57:43 20:58:34 10° 300° (WNW) 20:59:24 437.465
SEEDS 20 Aug 21:02:11 21:06:02 35° 263° (W) 21:09:57 437.485
AO-73 20 Aug 21:16:29 21:20:35 73° 77° (ENE) 21:24:44 145.935
DELFI C3 20 Aug 21:22:59 21:25:11 14° 65° (ENE) 21:27:24 145.870
O/OREOS (USA 219) 20 Aug 21:35:35 21:39:06 22° 258° (WSW) 21:42:37 437.305
AAUSAT CUBESAT 2 20 Aug 21:49:00 21:52:22 24° 265° (W) 21:55:46 437.432
UWE-3 20 Aug 21:52:12 21:55:25 21° 266° (W) 21:58:38 435.000/436.395/437.385
CUBEBUG 2 20 Aug 22:01:45 22:02:32 10° 270° (W) 22:03:20 437.445
Oscar 11 20 Aug 22:01:51 22:05:59 46° 261° (W) 22:10:09 .
EO-88 20 Aug 22:06:39 22:09:37 24° 70° (ENE) 22:12:37 145.990 - 145.960
STRAND 1 20 Aug 22:25:50 22:29:46 23° 296° (WNW) 22:33:41 437.568
ZACube-1 20 Aug 22:33:37 22:35:48 14° 269° (W) 22:37:58 437.345
FO-29 20 Aug 22:42:54 22:48:13 44° 98° (E) 22:53:10 435.910
Max Valier Satellite 20 Aug 22:44:59 22:48:37 80° 260° (W) 22:52:17 145.860
DELFI C3 20 Aug 22:55:43 22:59:33 45° 262° (W) 23:03:25 145.870
RS-15 20 Aug 22:57:12 23:07:50 40° 253° (WSW) 23:17:59 29.354- 29.394
ESTCUBE 1 20 Aug 23:02:43 23:04:56 14° 62° (ENE) 23:07:09 437.505/2401.250
PCSat 20 Aug 23:16:08 23:21:10 41° 111° (ESE) 23:26:14 145.827
UNISAT 6 20 Aug 23:20:48 23:24:59 48° 100° (E) 23:29:14 437.425
PRISM 20 Aug 23:29:35 23:33:29 39° 99° (E) 23:37:19 437.425
SO-50 20 Aug 23:34:53 23:38:50 30° 114° (ESE) 23:42:46 436.795
LO-87 20 Aug 23:36:40 23:40:02 39° 73° (ENE) 23:43:24 145.935 - 145.965
EO-88 20 Aug 23:40:30 23:43:14 20° 266° (W) 23:45:59 145.990 - 145.960
TIGRISAT 20 Aug 23:55:54 00:00:11 74° 284° (WNW) 00:04:33 435.000
AIST 2D 21 Aug 00:02:23 00:04:20 14° 92° (E) 00:06:17 435.315
M-CUBED/EXP-1 PRIME 21 Aug 00:26:51 00:29:45 18° 96° (E) 00:32:30 437.505
FO-29 21 Aug 00:28:40 00:32:59 23° 298° (WNW) 00:37:04 435.910
ESTCUBE 1 21 Aug 00:36:43 00:41:10 64° 259° (W) 00:45:41 437.505/2401.250
VELOX 1 21 Aug 00:44:27 00:48:24 32° 69° (ENE) 00:52:23 145.980
DUCHIFAT 1 21 Aug 00:45:55 00:48:30 16° 92° (E) 00:51:06 145.980
DX 1 21 Aug 00:49:39 00:50:48 11° 61° (ENE) 00:51:58 434.975-435.025
SPROUT 21 Aug 00:52:52 00:56:57 47° 72° (ENE) 01:01:02 437.525
UNISAT 6 21 Aug 00:58:45 01:01:19 16° 295° (WNW) 01:03:54 437.425
PCSat 21 Aug 00:59:53 01:04:39 31° 310° (NW) 01:09:27 145.827
PRISM 21 Aug 01:05:42 01:08:26 17° 295° (WNW) 01:11:09 437.425
LO-87 21 Aug 01:12:07 01:13:38 12° 268° (W) 01:15:09 145.935 - 145.965
SO-50 21 Aug 01:15:13 01:19:14 31° 311° (NW) 01:23:16 436.795
NO-84 21 Aug 01:16:21 01:17:13 11° 126° (SE) 01:18:06 435.350 FM
NANOSAT C BR1 21 Aug 01:29:40 01:33:48 58° 101° (E) 01:37:56 145.865
POLYITAN 1 21 Aug 01:34:13 01:38:27 74° 103° (ESE) 01:42:39 437.675
AIST 2D 21 Aug 01:34:24 01:37:37 33° 288° (WNW) 01:40:50 435.315
QB50P2 21 Aug 01:49:24 01:53:36 67° 285° (WNW) 01:57:46 145.880/145.840
EO-79 21 Aug 01:50:07 01:54:19 73° 284° (WNW) 01:58:30 145.935-145.965
50 SAT 21 Aug 01:58:29 02:01:53 83° 75° (ENE) 02:05:20 437.505
M-CUBED/EXP-1 PRIME 21 Aug 02:00:14 02:04:22 41° 294° (WNW) 02:08:13 437.505
UKube-1 21 Aug 02:00:49 02:04:50 40° 71° (ENE) 02:08:53 .
Oscar 19 21 Aug 02:01:28 02:04:28 15° 91° (E) 02:07:26 437.125/150
YUBILEINY 21 Aug 02:14:47 02:19:35 16° 59° (ENE) 02:24:22 435.215
DUCHIFAT 1 21 Aug 02:20:25 02:24:21 41° 288° (WNW) 02:28:17 145.980
BUGSAT 1 21 Aug 02:20:37 02:24:32 50° 100° (E) 02:28:27 437.445
VELOX 1 21 Aug 02:21:17 02:24:51 24° 265° (W) 02:28:27 145.980
DX 1 21 Aug 02:21:58 02:26:21 77° 259° (WSW) 02:30:45 434.975-435.025
SPROUT 21 Aug 02:30:41 02:33:05 15° 268° (W) 02:35:29 437.525
BEESAT 21 Aug 02:32:06 02:33:23 11° 59° (ENE) 02:34:40 436.000
NO-84 21 Aug 02:51:27 02:54:17 49° 321° (NW) 02:57:03 435.350 FM
ITUPSAT 1 21 Aug 03:03:44 03:07:23 22° 65° (ENE) 03:11:02 437.325
NANOSAT C BR1 21 Aug 03:07:08 03:09:01 13° 297° (WNW) 03:10:53 145.865
POLYITAN 1 21 Aug 03:12:53 03:13:36 10° 298° (WNW) 03:14:20 437.675
Gurwin Techsat 1B 21 Aug 03:12:56 03:18:05 48° 99° (E) 03:23:11 435.225
UKube-1 21 Aug 03:38:03 03:41:01 18° 267° (W) 03:43:58 .
Oscar 19 21 Aug 03:39:03 03:44:12 65° 288° (WNW) 03:49:20 437.125/150
MOZHAYETS 4 21 Aug 03:49:26 03:53:49 51° 73° (ENE) 03:58:15
BUGSAT 1 21 Aug 03:57:31 03:59:28 13° 296° (WNW) 04:01:24 437.445
BEESAT 21 Aug 04:05:40 04:10:25 87° 254° (WSW) 04:15:12 436.000
YUBILEINY 21 Aug 04:09:15 04:18:00 77° 81° (E) 04:26:41 435.215
CUBESAT XI-V 21 Aug 04:10:50 04:14:01 18° 65° (ENE) 04:17:13 437.345
ITUPSAT 1 21 Aug 04:40:30 04:44:57 39° 262° (W) 04:49:24 437.325
AO-7 21 Aug 04:50:00 04:58:01 49° 101° (E) 05:05:56 .
Gurwin Techsat 1B 21 Aug 04:53:37 04:57:41 23° 296° (WNW) 05:01:44 435.225
ITAMSAT 1 21 Aug 04:58:43 05:03:46 50° 100° (E) 05:08:45 435.822/435.867
BEESAT 3 21 Aug 05:12:49 05:15:32 18° 111° (ESE) 05:18:17 437.485
MOZHAYETS 4 21 Aug 05:28:37 05:31:15 15° 269° (W) 05:33:57
KKS-1 21 Aug 05:36:25 05:40:50 64° 74° (ENE) 05:45:17 437.445
CUBESAT XI-V 21 Aug 05:46:31 05:51:00 47° 261° (W) 05:55:32 437.345
YUBILEINY 21 Aug 06:07:41 06:13:46 22° 281° (W) 06:19:52 435.215
DOVE 4 21 Aug 06:08:50 06:11:53 18° 91° (E) 06:14:49 437.250
STARS 21 Aug 06:14:33 06:18:55 68° 75° (ENE) 06:23:18 437.465
ITAMSAT 1 21 Aug 06:39:03 06:42:51 21° 297° (WNW) 06:46:38 435.822/435.867
AO-7 21 Aug 06:43:04 06:50:35 40° 300° (WNW) 06:58:04 .
AO-85 21 Aug 06:44:29 06:48:26 75° 305° (NW) 06:52:20 145.980
LilacSat-2 21 Aug 06:46:51 06:49:00 14° 92° (E) 06:51:08 437.200
BEESAT 3 21 Aug 06:48:59 06:52:47 41° 308° (NW) 06:56:38 437.485
XW-2D 21 Aug 06:50:40 06:52:58 15° 92° (E) 06:55:16 145.860 - 145.880
NUDT-PHONESAT 21 Aug 06:56:49 06:58:22 12° 91° (E) 06:59:53 437.300
XW-2B 21 Aug 07:01:16 07:04:07 19° 94° (E) 07:06:56 145.730 - 145.750
BEESAT 2 21 Aug 07:02:52 07:06:52 89° 300° (WNW) 07:10:56 435.950
CUTE-I 21 Aug 07:09:28 07:13:43 24° 94° (E) 07:17:57 437.470
KKS-1 21 Aug 07:16:11 07:17:47 12° 269° (W) 07:19:25 437.445
XW-2C 21 Aug 07:19:50 07:23:20 33° 97° (E) 07:26:50 145.795 - 145.815
XW-2F 21 Aug 07:31:40 07:35:21 43° 99° (E) 07:39:00 145.980 - 146.000
DOVE 4 21 Aug 07:45:33 07:49:49 40° 289° (WNW) 07:53:50 437.250
NO-84 21 Aug 07:48:00 07:49:34 13° 25° (NNE) 07:51:10 435.350 FM
STARS 21 Aug 07:54:41 07:55:41 11° 270° (W) 07:56:42 437.465
KAITUO 1B 21 Aug 07:56:21 08:00:09 72° 101° (E) 08:03:57 145.475/437.950
CUTE 1.7 + AOD 2 21 Aug 07:59:07 08:02:02 18° 92° (E) 08:04:56 437.475
STRAND 1 21 Aug 08:01:39 08:06:41 63° 73° (ENE) 08:11:44 437.568
HO-68 21 Aug 08:02:57 08:08:56 28° 95° (E) 08:14:54 435.675
PCSat 21 Aug 08:03:51 08:08:48 34° 51° (NE) 08:13:41 145.827
SO-50 21 Aug 08:05:41 08:09:42 29° 48° (NE) 08:13:43 436.795
CUBEBUG 2 21 Aug 08:13:30 08:15:24 13° 91° (E) 08:17:19 437.445
LilacSat-2 21 Aug 08:19:48 08:23:26 39° 287° (WNW) 08:27:04 437.200
XW-2D 21 Aug 08:23:43 08:27:16 36° 288° (WNW) 08:30:49 145.860 - 145.880
NUDT-PHONESAT 21 Aug 08:28:52 08:32:27 43° 287° (WNW) 08:36:01 437.300
XW-2B 21 Aug 08:34:58 08:38:17 28° 290° (WNW) 08:41:37 145.730 - 145.750
BEESAT 2 21 Aug 08:43:39 08:45:14 12° 321° (NW) 08:46:50 435.950
SEEDS 21 Aug 08:45:37 08:49:34 35° 97° (E) 08:53:27 437.485
CUTE-I 21 Aug 08:48:54 08:53:54 42° 291° (WNW) 08:58:52 437.470
FO-29 21 Aug 08:54:15 09:00:08 26° 63° (ENE) 09:05:35 435.910
XW-2C 21 Aug 08:54:41 08:57:16 17° 293° (WNW) 08:59:51 145.795 - 145.815
AO-73 21 Aug 09:05:31 09:07:48 14° 91° (E) 09:10:06 145.935
XW-2F 21 Aug 09:07:08 09:09:05 14° 295° (WNW) 09:11:02 145.980 - 146.000
NO-84 21 Aug 09:24:14 09:27:19 89° 109° (ESE) 09:30:36 435.350 FM
XW-2A 21 Aug 09:25:44 09:29:08 83° 283° (WNW) 09:32:33 145.665 - 145.685
AAUSAT CUBESAT 2 21 Aug 09:30:03 09:34:09 51° 100° (E) 09:38:11 437.432
CUTE 1.7 + AOD 2 21 Aug 09:34:00 09:38:01 39° 288° (WNW) 09:42:00 437.475
UWE-3 21 Aug 09:40:03 09:44:18 71° 101° (E) 09:48:39 435.000/436.395/437.385
STRAND 1 21 Aug 09:43:22 09:46:17 15° 269° (W) 09:49:12 437.568
SO-50 21 Aug 09:46:02 09:50:09 34° 245° (WSW) 09:54:18 436.795
PCSat 21 Aug 09:47:16 09:52:10 36° 250° (WSW) 09:57:03 145.827
CUBEBUG 2 21 Aug 09:48:13 09:52:18 53° 286° (WNW) 09:56:29 437.445
Oscar 11 21 Aug 09:49:03 09:52:56 31° 96° (E) 09:56:47 .
HO-68 21 Aug 09:50:01 09:56:58 56° 292° (WNW) 10:03:54 435.675
Tancredo 1 21 Aug 09:53:12 09:56:01 47° 140° (SE) 09:58:50 437.200
O/OREOS (USA 219) 21 Aug 10:07:54 10:12:04 40° 106° (ESE) 10:16:16 437.305
PRISM 21 Aug 10:18:39 10:22:12 28° 69° (ENE) 10:25:47 437.425
ZACube-1 21 Aug 10:19:01 10:23:19 78° 285° (WNW) 10:27:41 437.345
UNISAT 6 21 Aug 10:19:27 10:23:32 41° 72° (ENE) 10:27:34 437.425
SEEDS 21 Aug 10:21:53 10:24:59 20° 293° (WNW) 10:28:04 437.485
DELFI C3 21 Aug 10:33:06 10:36:11 21° 94° (E) 10:39:14 145.870
FO-29 21 Aug 10:37:08 10:44:43 65° 259° (WSW) 10:51:37 435.910
AO-73 21 Aug 10:40:07 10:44:17 50° 286° (WNW) 10:48:30 145.935
